SB KEPS @ AMSAT $ORB26163.1 2Line Orbital Elements 26163.AMSAT QST de W1STR AMSAT Orbital Elements for Amateur Satellites in TLE Format From Orbital Analysis Office New England Sci-Tech STEM Education Center Natick MA June 12, 2026 To all radio amateurs These element sets describe the orbits of various satellites in use by the amateur radio community. For details see: www.amsat.org/keplerian-elements-formats/ A daily update of element sets is available at: www.amsat.org/tle/daily-bulletin.txt or without bulletin text: www.amsat.org/tle/dailytle.txt AO-07 1 07530U 74089B 26163.26418550 -.00000029 00000-0 11075-3 0 9991 2 07530 101.9901 176.4594 0012519 139.2870 231.9396 12.53697997359909 UO-11 1 14781U 84021B 26162.85173535 .00001184 00000-0 12615-3 0 9992 2 14781 97.8055 128.4861 0007137 190.5105 169.5965 14.90770083256335 LO-19 1 20442U 90005G 26163.29815073 .00000116 00000-0 58249-4 0 9999 2 20442 98.8851 184.9689 0010859 216.1555 143.8896 14.34121799901691 AO-27 1 22825U 93061C 26163.17512623 .00000088 00000-0 50602-4 0 9996 2 22825 98.6880 230.5904 0009470 112.6662 247.5523 14.30940991706288 FO-29 1 24278U 96046B 26163.13568423 .00000015 00000-0 47898-4 0 9994 2 24278 98.5244 12.6999 0350843 109.5060 254.4324 13.53273969472484 GO-32 1 25397U 98043D 26163.21762168 .00000055 00000-0 43827-4 0 9999 2 25397 99.0066 155.8509 0000773 174.7863 185.3323 14.24427513450629 ISS 1 25544U 98067A 26162.96453450 .00008067 00000-0 15344-3 0 9994 2 25544 51.6334 325.9414 0004932 175.6343 184.4689 15.49182446570948 NO-44 1 26931U 01043C 26162.64152601 .00000072 00000-0 57659-4 0 9996 2 26931 67.0509 258.6152 0006100 264.4327 95.6080 14.31954152289657 SO-50 1 27607U 02058C 26163.30015445 .00000989 00000-0 13385-3 0 9996 2 27607 64.5507 144.1057 0075372 263.3766 95.8757 14.83036938263737 CO-55 1 27844U 03031E 26162.97931317 .00000243 00000-0 12418-3 0 9997 2 27844 98.6735 171.6035 0009162 193.3973 166.6964 14.24332546190935 RS-22 1 27939U 03042A 26163.33460855 .00000603 00000-0 10111-3 0 9997 2 27939 98.3472 347.5567 0010022 287.0186 197.0572 14.73458230214835 CO-65 1 32785U 08021C 26163.21061662 .00005250 00000-0 33220-3 0 9993 2 32785 97.8272 144.5255 0010282 54.0359 306.1822 15.09408566984442 CO-66 1 32791U 08021J 26163.23902191 .00019444 00000-0 61967-3 0 9992 2 32791 97.7515 160.9008 0001816 20.0677 340.0635 15.32585967986533 RS-30 1 32953U 08025A 26163.26977990 .00000099 00000-0 63936-3 0 9992 2 32953 82.5049 358.5001 0019050 325.0036 34.9790 12.43179266819087 SRMSAT 1 37841U 11058D 26162.51581192 .00000355 00000-0 48954-4 0 9994 2 37841 19.9715 93.7945 0011909 141.4141 27.1536 14.11574372757019 ZACUBE-1 1 39417U 13066B 26163.14146462 .00003046 00000-0 23862-3 0 9993 2 39417 97.8084 125.4510 0040271 265.3483 94.3141 15.01158093679978 Delfi-N3xt 1 39428U 13066N 26163.29211662 .00004714 00000-0 41375-3 0 9998 2 39428 97.8344 83.6085 0073295 222.2321 137.3241 14.95035585673892 GOMX-1 1 39430U 13066Q 26163.28321212 .00001775 00000-0 27070-3 0 9993 2 39430 97.6492 4.0559 0130190 93.1134 268.4979 14.69441853669197 LO-74 1 39440U 13066AA 26163.10615375 .00003560 00000-0 33078-3 0 9990 2 39440 97.8899 112.0627 0058836 45.4296 315.1704 14.93719997676235 AO-73 1 39444U 13066AE 26162.55441071 .00005554 00000-0 34659-3 0 9993 2 39444 97.8262 133.8824 0035145 220.5848 139.2760 15.09420112678819 DTUSAT-2 1 40030U 14033W 26162.95402888 .00006216 00000-0 33719-3 0 9990 2 40030 98.0857 160.3488 0006303 246.9203 113.1364 15.14950176651891 LILACSAT-2 1 40908U 15049K 26163.17664920 .00016565 00000-0 28384-3 0 9994 2 40908 97.4657 199.8278 0005286 269.0958 90.9688 15.51281361594972 Horyu-4 1 41340U 16012D 26163.17820750 .00381515 49653-4 10938-2 0 9997 2 41340 30.9835 115.7146 0003837 236.1046 123.9250 15.91940402570010 Lapan A3 1 41603U 16040E 26163.29589958 .00003319 00000-0 10605-3 0 9999 2 41603 97.1483 159.6023 0011430 41.9491 318.2625 15.33074342554060 CAS-2T 1 41847U 16066G 26163.18452981 .00001632 00000-0 23593-3 0 9996 2 41847 98.3821 238.9779 0342628 144.6097 217.8365 14.44678480504072 TechnoSat 1 42829U 17042E 26162.99659051 .00003373 00000-0 24149-3 0 9999 2 42829 97.4264 320.8526 0018789 110.6510 249.6734 15.04923285485924 AO-91 1 43017U 17073E 26163.18070044 .00010038 00000-0 43795-3 0 9998 2 43017 97.4717 30.4982 0150347 346.5871 13.1381 15.12639688464631 S-Net D 1 43186U 18014G 26163.18375949 .00004969 00000-0 25738-3 0 9996 2 43186 97.5372 68.0060 0009422 45.5733 314.6269 15.16627635458001 S-Net B 1 43187U 18014H 26163.19511552 .00005165 00000-0 26755-3 0 9999 2 43187 97.5379 68.0036 0009929 40.8556 319.3419 15.16598115458004 S-Net A 1 43188U 18014J 26163.24864102 .00004914 00000-0 25445-3 0 9994 2 43188 97.5389 68.2645 0009801 41.6460 318.5518 15.16635862458019 S-Net C 1 43189U 18014K 26163.26494565 .00005273 00000-0 27306-3 0 9996 2 43189 97.5405 68.3547 0010980 33.6648 326.5280 15.16590724456560 Ten-Koh 1 43677U 18084G 26163.06378220 .00001998 00000-0 15359-3 0 9997 2 43677 98.0780 355.2116 0011052 129.6569 230.5631 15.02922916415390 PO-101 1 43678U 18084H 26163.23494414 .00002189 00000-0 17908-3 0 9996 2 43678 98.1180 359.2284 0012241 186.2057 173.9016 15.00428405415476 QO-100 1 43700U 18090A 26163.26991273 .00000159 00000-0 00000-0 0 9994 2 43700 0.0182 327.8391 0001533 149.5732 266.1744 1.00268282 27629 MinXSS-2 1 43758U 18099A 26163.17501389 .00038574 00000-0 77409-3 0 9993 2 43758 97.4547 239.3135 0006336 276.1289 83.9238 15.46568053413356 AO-95 1 43770U 18099N 26163.16185761 .00012073 00000-0 46305-3 0 9995 2 43770 97.4395 223.4266 0008513 16.6170 343.5346 15.26608215412453 SNUSat 2 1 43782U 18099AA 26163.13878288 .00006896 00000-0 30686-3 0 9999 2 43782 97.4069 216.5999 0008857 319.4163 40.6412 15.21762760412266 SnugLite 1 43784U 18099AC 26163.09829076 .00011330 00000-0 42919-3 0 9998 2 43784 97.3878 217.4283 0001438 331.6355 28.4806 15.27067610412548 ITASat 1 1 43786U 18099AE 26163.08115618 .00006413 00000-0 30911-3 0 9994 2 43786 97.4034 214.6947 0012663 18.3409 341.8279 15.18993689412137 EAGLET 1 1 43790U 18099AJ 26163.09238382 .00004004 00000-0 23079-3 0 9995 2 43790 97.4234 212.8956 0011184 11.8995 348.2498 15.12900595411567 ESEO 1 43792U 18099AL 26163.05823766 .00001930 00000-0 14286-3 0 9994 2 43792 97.3967 200.6657 0011857 357.1607 2.9550 15.04226823411038 JO-97 1 43803U 18099AX 26163.13681758 .00015570 00000-0 48284-3 0 9999 2 43803 97.4133 225.9535 0004127 287.1205 72.9585 15.33493153412850 Suomi 100 1 43804U 18099AY 26163.09947341 .00010802 00000-0 39404-3 0 9995 2 43804 97.4198 223.5118 0008385 300.8442 59.1973 15.28298962412649 ISAT 1 43879U 18111D 26163.30242673 .00104956 00000-0 10838-2 0 9995 2 43879 97.5883 98.1505 0001132 58.4600 301.6769 15.64436820410401 UWE-4 1 43880U 18111E 26163.03704896 .00037924 00000-0 78108-3 0 9992 2 43880 97.5852 91.1918 0006446 4.5905 355.5402 15.45812047409984 Sparrow 1 43881U 18111F 26163.29868315 .00165899 00000-0 11961-2 0 9994 2 43881 97.6109 103.6790 0004502 104.4111 255.7652 15.73043119410604 Prox-1 1 44339U 19036A 26162.63473252 .00012207 00000-0 11914-2 0 9991 2 44339 23.9924 151.3410 0005369 331.4108 28.6097 14.90479846372648 Taurus 1 1 44530U 19059C 26163.28083837 .00005622 00000-0 90272-3 0 9995 2 44530 98.6406 327.8047 0007651 333.7754 26.3063 14.72045524357923 TO-108 1 44881U 19093C 26163.26554447 .00000214 00000-0 30201-4 0 9999 2 44881 97.7533 235.6173 0014961 101.3833 258.9064 14.86509371350688 RS-44 1 44909U 19096E 26163.23612107 .00000031 00000-0 75545-4 0 9995 2 44909 82.5218 342.9956 0217970 155.7087 205.4479 12.79748788301715 SALSAT 1 46495U 20068K 26163.23969061 .00008047 00000-0 28202-3 0 9994 2 46495 97.8848 166.0033 0008469 328.8216 31.2520 15.29730151314601 CSS (TIANHE-1) 1 48274U 21035A 26162.98578186 .00013571 00000-0 16313-3 0 9999 2 48274 41.4694 353.6513 0008143 34.9117 325.2255 15.60574522292354 CUTE 1 49263U 21088D 26163.22339317 .00188504 15266-4 58087-3 0 9992 2 49263 97.4165 262.0421 0007854 237.6294 122.4220 15.91737915261765 TeikyoSat 4 1 49396U 21102B 26163.08269150 .00001720 00000-0 11105-3 0 9997 2 49396 97.3672 192.7646 0010801 316.5940 43.4438 15.09490953251953 Z-Sat 1 49399U 21102E 26163.25492082 .00004217 00000-0 20875-3 0 9999 2 49399 97.3331 198.7275 0014864 264.0038 95.9502 15.18227284252691 KOSEN 1 1 49402U 21102H 26163.09516589 .00006510 00000-0 24961-3 0 9993 2 49402 97.3194 205.3513 0012672 219.4221 140.6097 15.26764823253249 HO-113 1 50466U 21131B 26163.26468021 .00000401 00000-0 13761-3 0 9992 2 50466 98.4974 255.6807 0005289 107.7226 252.4541 14.41352915234407 SNUGLITE 2 1 52899U 22065F 26163.11123961 .00000781 00000-0 15697-3 0 9997 2 52899 98.2195 307.9510 0008302 47.4913 312.6989 14.64338347210256 UmKA 1 (RS40S) 1 57172U 23091G 26163.09332433 .00005454 00000-0 25026-3 0 9998 2 57172 97.5058 221.8099 0014043 133.5490 226.6915 15.20758521163238 CubeBel-2 (EU11S) 1 57175U 23091K 26163.21038478 .00013370 00000-0 47579-3 0 9990 2 57175 97.5060 226.3828 0011194 129.7745 230.4482 15.29032185163544 RS-38S 1 57189U 23091Z 26163.26150292 .00018600 00000-0 53391-3 0 9999 2 57189 97.5100 232.6478 0008546 92.3953 267.8269 15.35872791163930 SONATE-2 1 59112U 24043Q 26162.93769449 .00035538 00000-0 46836-3 0 9993 2 59112 97.5519 313.0138 0006785 213.3126 146.7703 15.58325832127076 GRBBeta 1 60237U 24128C 26163.30874678 .00003491 00000-0 24457-3 0 9998 2 60237 61.9896 233.3818 0041288 133.6112 226.8419 15.06609302105535 Curium One 1 60242U 24128H 26163.27783930 .00006940 00000-0 40191-3 0 9995 2 60242 61.9782 223.1618 0040532 129.5442 230.9246 15.12452442105713 ROBUSTA-3A 1 60243U 24128J 26163.30603974 .00007007 00000-0 41454-3 0 9997 2 60243 61.9860 225.5052 0041864 127.2589 233.2336 15.11623087105681 CatSat 1 60246U 24125J 26163.13116694 .00059398 00000-0 77952-3 0 9998 2 60246 97.2094 15.5701 0022035 197.2605 162.7904 15.58057921106607 HYPERVIEW-1G (RS66S) 1 61772U 24199AP 26163.23464103 .00145527 00000-0 98644-3 0 9997 2 61772 97.2889 42.7085 0002694 246.8852 113.2129 15.74557070133894 AO-123 1 61781U 24199AY 26163.27788434 .00008043 00000-0 23408-3 0 9994 2 61781 97.3014 31.9935 0012770 333.5097 26.5493 15.35607275133171 JINJUSat 1B 1 63210U 25052A 26163.18653837 .00018357 00000-0 57106-3 0 9991 2 63210 97.4019 59.9354 0005437 102.0175 258.1677 15.33350797 69334 NUSHSAT 1 1 63211U 25052B 26163.23821073 .00022200 00000-0 63874-3 0 9998 2 63211 97.3995 60.5359 0005195 103.5392 256.6431 15.35782531 69381 TEVEL2-4 1 63213U 25052D 26163.22634011 .00019646 00000-0 59033-3 0 9995 2 63213 97.3917 59.6110 0004731 112.7549 247.4195 15.34441293 69350 TEVEL2-5 1 63214U 25052E 26163.18106670 .00020078 00000-0 60654-3 0 9998 2 63214 97.3921 59.5143 0004630 114.2395 245.9332 15.34269187 69340 TEVEL2-6 1 63215U 25052F 26163.19328240 .00020179 00000-0 61028-3 0 9997 2 63215 97.3921 59.5115 0004505 113.2672 246.9046 15.34232330 69341 TEVEL2-1 1 63217U 25052H 26162.95960718 .00016082 00000-0 49545-3 0 9992 2 63217 97.3891 58.9077 0004509 123.4340 236.7334 15.33693147 69295 TEVEL2-3 1 63218U 25052J 26163.21540340 .00019135 00000-0 58756-3 0 9994 2 63218 97.3892 59.1848 0004499 123.1530 237.0145 15.33760310 69338 TEVEL2-2 1 63219U 25052K 26162.95994952 .00016262 00000-0 50083-3 0 9990 2 63219 97.3890 58.9106 0004450 123.8478 236.3189 15.33701780 69297 TEVEL2-9 1 63237U 25052AD 26163.19195162 .00017823 00000-0 58280-3 0 9994 2 63237 97.3947 58.5267 0007288 144.2630 215.9100 15.31748226 69260 TEVEL2-7 1 63238U 25052AE 26162.64384617 .00015266 00000-0 50453-3 0 9992 2 63238 97.3956 57.8996 0007384 146.6025 213.5683 15.31438086 69173 TEVEL2-8 1 63239U 25052AF 26163.17476619 .00016802 00000-0 55488-3 0 9996 2 63239 97.3951 58.4063 0007475 146.0802 214.0919 15.31439720 69252 SPIRONE 1 66657U 25274H 26163.29721989 .00002455 00000-0 23813-3 0 9991 2 66657 97.7483 92.6584 0013149 37.5216 322.6919 14.93528471 29496 K-HERO 1 66660U 25274L 26162.76735422 .00001829 00000-0 17682-3 0 9994 2 66660 97.7492 92.2932 0015168 42.2297 318.0088 14.93944151 29424 SNUGLITE-III DURI 1 66661U 25274M 26162.75527955 .00001868 00000-0 18034-3 0 9999 2 66661 97.7488 92.3016 0015702 42.7209 317.5228 14.93983612 29421 SAKHACUBE-CHOLBON 1 67290U 25313AU 26163.17296909 .00009791 00000-0 39694-3 0 9999 2 67290 97.3937 238.2703 0009393 23.1321 337.0338 15.24801692 25210 RS95S (QMR-KWT-2) 1 67291U 25313AV 26163.16578942 .00015119 00000-0 58665-3 0 9999 2 67291 97.3937 238.4284 0008727 21.5421 338.6183 15.26166188 25222 Ten-Koh2 1 68261U 25241B 26161.72007287 .00005667 00000-0 24553-3 0 9992 2 68261 51.6686 350.4048 0006326 123.3884 236.7700 15.23827135 13924 JACK-002 1 68417U 26067B 26162.82686579 .00006369 00000-0 30466-3 0 9991 2 68417 97.4561 121.4838 0000823 15.4234 344.7026 15.19328742 11133 DISCO 2 1 68431U 26067R 26163.24213014 .00008696 00000-0 41860-3 0 9999 2 68431 97.4593 121.8826 0003259 51.6111 308.5416 15.18999407 11195 HADES-SA (SpinnyONE) 1 68446U 26067AG 26163.14939837 .00016999 00000-0 81599-3 0 9990 2 68446 97.4395 121.5214 0009639 94.4951 265.7385 15.18890025 11166 PARUS-6U1 1 68456U 26067AS 26162.84728438 .00005748 00000-0 29024-3 0 9995 2 68456 97.4544 121.2929 0007594 85.5442 274.6659 15.17461384 11127 SAL-E 1 68458U 26067AU 26162.84352859 .00007555 00000-0 37792-3 0 9996 2 68458 97.4468 121.2287 0007975 92.6025 267.6122 15.17680369 11123 FSI-SAT 2 1 68792U 26088A 26163.17242702 .00004994 00000-0 33857-3 0 9994 2 68792 97.5048 312.5581 0015561 122.6202 237.6530 15.06792592 7532 OrigamiSat 2 1 68795U 26088D 26162.39189273 .00002808 00000-0 18308-3 0 9999 2 68795 97.4996 311.9168 0016256 99.2249 261.0819 15.08597160 7427 ARICA 2 1 68796U 26088E 26162.65547729 .00003522 00000-0 22986-3 0 9994 2 68796 97.5045 312.1677 0017187 97.6089 262.7092 15.08382175 7463 WASEDA-SAT-ZERO-II 1 68797U 26088F 26162.98359818 .00005115 00000-0 33016-3 0 9997 2 68797 97.5042 312.4956 0016882 96.5831 263.7320 15.08581239 7511 MANGARO-II-Piscus 1 68798U 26088G 26162.90825429 .00003831 00000-0 24688-3 0 9994 2 68798 97.5054 312.4489 0020445 99.3351 261.0191 15.08743852 7501 IO-86 1 40931U 25360.30710720 .00000000 00000-0 12800-3 0 00 2 40931 6.0006 332.5373 0012733 338.8432 8.1437 14.79075515 01 LILIUM-4 1 71922C 26067AC 26089.50133053 -.00014632 00000+0 -74472-3 0 04 2 71922 97.4497 49.1617 0004341 5.9603 355.7042 15.16896692 16 /EX